Location: Ceska republika
(50.0000°N, 15.0000°E)
Time: 08:51:14
(UTC+02:00)

ISS - Pass Details

Date: 08 October 2017
Orbit: 401 x 408 km, 51.6° (Epoch: 21 October)

Event Time Altitude Azimuth Distance (km) Brightness Sun altitude
Rises 21:14:17 0° 287° (WNW) 2,331 1.3 -27.7°
Reaches altitude 10° 21:16:29 10° 277° (W) 1,469 -0.1 -28.0°
Enters shadow 21:17:22 16° 269° (W) 1,156 -0.9 -28.1°
